Seattle, WA
on Saturday, November 3, 2012

Saturday
Previous Day Next Day
Daily Summary
 ActualAverageRecord
Temperature
Mean Temperature °F 48°F  
Max Temperature 60°F 54°F 74°F (2010)
Min Temperature 52°F 43°F 29°F (1953)
Degree Days
Heating Degree Days 9 17  
Month to date heating degree days 29 50  
Since 1 July heating degree days 522 647  
Cooling Degree Days 0 0  
Month to date cooling degree days 0 0  
Year to date cooling degree days 177 189  
Growing Degree Days6 (Base °F )  
Moisture
Dew Point 52°F   
Average Humidity 86    
Maximum Humidity 96    
Minimum Humidity 75    
Precipitation
Precipitation 0.02 in 0.20 in 1.37 in (1971)
Month to date precipitation 0.62 0.58  
Year to date precipitation 33.75 26.15  
Snow
Snow 0.00 in in 0.20 in (1973)
Month to date snowfall 0.0  
Since 1 July snowfall 0.0  
Snow Depth 0.00 in   
Wind
Wind Speed 8 mph   
Max Wind Speed 17 mph   
Max Gust Speed 22 mph   
Visibility 9 miles   
Events Fog , Rain   

Key: T is trace of precipitation, MM is missing value
Source: NWS Daily Summary
Time(PDT)TemperatureDew PointHumidity Pressure Visibility Wind DirectionWind SpeedGust SpeedPrecipitationEvents Conditions
12:15 AM 51.8°F 50.0°F 94% 29.98 in 0.5 miles Calm Calm - 0.01 in Fog Fog
12:27 AM 51.8°F 50.0°F 94% 29.98 in 5.0 miles Calm Calm - 0.01 in Rain Light Rain
12:53 AM 52.0°F 50.0°F 93% 30.00 in 5.0 miles Calm Calm - 0.01 in   Overcast
1:53 AM 53.1°F 50.0°F 89% 30.00 in 10.0 miles Calm Calm - 0.00 in Rain Light Rain
2:53 AM 53.1°F 50.0°F 89% 30.00 in 5.0 miles ESE 5.8 mph - 0.00 in   Overcast
3:42 AM 53.6°F 51.8°F 94% 29.99 in 5.0 miles SSE 6.9 mph - 0.00 in   Overcast
3:53 AM 53.1°F 51.1°F 93% 30.01 in 5.0 miles SSE 5.8 mph - 0.00 in   Overcast
4:53 AM 53.1°F 51.1°F 93% 30.02 in 5.0 miles SE 9.2 mph - 0.00 in   Overcast
5:53 AM 53.1°F 50.0°F 89% 30.03 in 10.0 miles SE 8.1 mph - 0.00 in   Overcast
6:53 AM 53.1°F 50.0°F 89% 30.02 in 10.0 miles SE 6.9 mph - 0.00 in   Overcast
7:53 AM 53.1°F 50.0°F 89% 30.04 in 10.0 miles South 3.5 mph - N/A   Overcast
8:41 AM 53.6°F 50.0°F 88% 30.03 in 10.0 miles SE 9.2 mph - N/A   Overcast
8:53 AM 54.0°F 50.0°F 86% 30.05 in 10.0 miles SE 6.9 mph - N/A   Overcast
9:53 AM 55.0°F 51.1°F 86% 30.06 in 10.0 miles South 4.6 mph - N/A   Overcast
10:53 AM 55.9°F 51.1°F 84% 30.06 in 10.0 miles South 4.6 mph - N/A   Overcast
11:53 AM 55.9°F 52.0°F 87% 30.07 in 10.0 miles South 6.9 mph - N/A   Overcast
12:53 PM 57.0°F 52.0°F 83% 30.07 in 10.0 miles SSW 6.9 mph - N/A   Overcast
1:53 PM 59.0°F 53.1°F 81% 30.07 in 10.0 miles SSW 12.7 mph - N/A   Overcast
2:23 PM 59.0°F 51.8°F 77% 30.06 in 10.0 miles SSW 13.8 mph - N/A   Overcast
2:53 PM 59.0°F 52.0°F 78% 30.08 in 10.0 miles SSW 15.0 mph - N/A   Overcast
3:53 PM 59.0°F 53.1°F 81% 30.10 in 10.0 miles SSW 13.8 mph - 0.00 in   Overcast
4:21 PM 57.2°F 53.6°F 88% 30.09 in 5.0 miles SSW 13.8 mph 19.6 mph 0.02 in Rain Light Rain
4:43 PM 57.2°F 53.6°F 88% 30.10 in 10.0 miles SW 11.5 mph - 0.02 in   Overcast
4:53 PM 57.0°F 53.1°F 87% 30.12 in 10.0 miles SSW 13.8 mph 20.7 mph 0.02 in   Overcast
5:21 PM 57.2°F 53.6°F 88% 30.11 in 10.0 miles SSW 13.8 mph 19.6 mph N/A   Overcast
5:53 PM 57.0°F 53.1°F 87% 30.14 in 10.0 miles SSW 12.7 mph - N/A   Overcast
6:53 PM 57.0°F 53.1°F 87% 30.15 in 10.0 miles SSW 13.8 mph - N/A   Overcast
7:53 PM 57.0°F 52.0°F 83% 30.16 in 10.0 miles SSW 13.8 mph - 0.00 in Rain Light Rain
8:53 PM 55.9°F 52.0°F 87% 30.17 in 10.0 miles South 9.2 mph - 0.00 in   Overcast
9:53 PM 55.9°F 52.0°F 87% 30.18 in 10.0 miles SSW 6.9 mph - N/A   Overcast
10:53 PM 55.9°F 52.0°F 87% 30.19 in 10.0 miles SSE 4.6 mph - 0.00 in   Overcast
11:53 PM 55.9°F 52.0°F 87% 30.21 in 10.0 miles South 3.5 mph - 0.00 in   Overcast
Moon Phase
Nov. 03 Nov. 06 Nov. 13 Nov. 20 Nov. 28
Sunrise:07:56 AM (PDT) Moon Rise:09:27 PM (PDT)11/3
Sunset:05:48 PM (PDT) Moon Set:12:11 PM (PDT)11/3

Copyright © 2014 The Weather Underground, Inc.